Weather History for Cumberland, WI

Change the Weather History Date:

Friday, April 5, 2013

  Actual Average (KRPD) Record (KRPD)
Temperature  
Mean Temperature 29 °F -  
Max Temperature 35 °F 46 °F 73 °F (2005)
Min Temperature 23 °F 28 °F 11 °F (2014)
Degree Days  
Heating Degree Days 36    
Moisture  
Dew Point 20 °F    
Average Humidity 64    
Maximum Humidity 100    
Minimum Humidity 48    
Precipitation  
Precipitation 0.01 in - - ()
Sea Level Pressure  
Sea Level Pressure 30.15 in    
Wind  
Wind Speed 6 mph (ESE)    
Max Wind Speed 18 mph    
Max Gust Speed -    
Visibility 9 miles    
Events Rain , Snow    
Averages and records for this station are not official NWS values.
T = Trace of Precipitation, MM = Missing Value Source: NWS Daily Summary

Daily Weather History Graph

Daily Weather History Graph

Search for Another Location

Airport:

Trip Planner

Search our weather history database for the weather conditions in past years. The results will help you decide how hot, cold, wet, or windy it might be!

Date:

Astronomy

Apr. 05, 2013 Rise Set
Actual Time 6:40 AM CDT 7:41 PM CDT
Civil Twilight 6:10 AM CDT 8:11 PM CDT
Nautical Twilight 5:33 AM CDT 8:48 PM CDT
Astronomical Twilight 4:55 AM CDT 9:26 PM CDT
Moon 4:01 AM CDT (4/5) 2:53 PM CDT (4/5)
Length of Visible Light 14h 01m
Length of Day
13h 01m
Waning Crescent, 23% of the Moon is Illuminated
Apr 5
Waning Crescent
Apr 10
New
Apr 18
First Quarter
Apr 25
Full
May 2
Last Quarter

Hourly Weather History & Observations

Time (CDT) Temp. Windchill Dew Point Humidity Pressure Visibility Wind Dir Wind Speed Gust Speed Precip Events Conditions
12:15 AM 32.0 °F 24.8 °F 15.8 °F 51% 30.14 in 10.0 mi North 8.1 mph - N/A   Clear
12:35 AM 30.2 °F 23.4 °F 15.8 °F 55% 30.14 in 10.0 mi North 6.9 mph - N/A   Clear
12:55 AM 30.2 °F 22.6 °F 17.6 °F 60% 30.14 in 10.0 mi North 8.1 mph - N/A   Clear
1:15 AM 30.2 °F 24.3 °F 15.8 °F 55% 30.15 in 10.0 mi North 5.8 mph - N/A   Clear
1:35 AM 30.2 °F 24.3 °F 14.0 °F 51% 30.16 in 10.0 mi North 5.8 mph - N/A   Clear
1:55 AM 30.2 °F 23.4 °F 14.0 °F 51% 30.16 in 10.0 mi North 6.9 mph - N/A   Clear
2:15 AM 28.4 °F 23.3 °F 14.0 °F 55% 30.16 in 10.0 mi North 4.6 mph - N/A   Clear
2:35 AM 28.4 °F 23.3 °F 14.0 °F 55% 30.16 in 10.0 mi North 4.6 mph - N/A   Clear
2:55 AM 28.4 °F 21.2 °F 14.0 °F 55% 30.16 in 10.0 mi North 6.9 mph - N/A   Clear
3:15 AM 28.4 °F 21.2 °F 14.0 °F 55% 30.16 in 10.0 mi North 6.9 mph - N/A   Clear
3:35 AM 28.4 °F 20.4 °F 14.0 °F 55% 30.17 in 10.0 mi North 8.1 mph - N/A   Clear
3:55 AM 28.4 °F 21.2 °F 14.0 °F 55% 30.18 in 10.0 mi North 6.9 mph - N/A   Clear
4:15 AM 26.6 °F 22.6 °F 14.0 °F 59% 30.18 in 10.0 mi North 3.5 mph - N/A   Clear
4:35 AM 26.6 °F 22.6 °F 14.0 °F 59% 30.19 in 10.0 mi North 3.5 mph - N/A   Clear
4:55 AM 26.6 °F 21.2 °F 14.0 °F 59% 30.20 in 10.0 mi North 4.6 mph - N/A   Clear
5:15 AM 26.6 °F 21.2 °F 14.0 °F 59% 30.20 in 10.0 mi North 4.6 mph - N/A   Clear
5:35 AM 26.6 °F 21.2 °F 14.0 °F 59% 30.21 in 10.0 mi North 4.6 mph - N/A   Clear
5:55 AM 24.8 °F - 14.0 °F 64% 30.21 in 10.0 mi Calm Calm - N/A   Clear
6:15 AM 23.0 °F 18.4 °F 15.8 °F 74% 30.22 in 10.0 mi North 3.5 mph - N/A   Clear
6:35 AM 23.0 °F 18.4 °F 15.8 °F 74% 30.22 in 10.0 mi North 3.5 mph - N/A   Clear
6:55 AM 23.0 °F - 15.8 °F 74% 30.22 in 10.0 mi Calm Calm - N/A   Clear
7:15 AM 23.0 °F - 15.8 °F 74% 30.23 in 10.0 mi Calm Calm - N/A   Clear
7:35 AM 26.6 °F 22.6 °F 17.6 °F 69% 30.23 in 10.0 mi NNE 3.5 mph - N/A   Clear
7:55 AM 26.6 °F 21.2 °F 17.6 °F 69% 30.23 in 10.0 mi NE 4.6 mph - N/A   Clear
8:15 AM 28.4 °F 22.2 °F 17.6 °F 64% 30.23 in 10.0 mi ENE 5.8 mph - N/A   Clear
8:35 AM 28.4 °F 21.2 °F 17.6 °F 64% 30.24 in 10.0 mi ENE 6.9 mph - N/A   Clear
8:55 AM 30.2 °F 23.4 °F 17.6 °F 60% 30.24 in 10.0 mi ENE 6.9 mph - N/A   Clear
9:15 AM 30.2 °F 22.6 °F 19.4 °F 64% 30.23 in 10.0 mi East 8.1 mph - N/A   Clear
9:35 AM 32.0 °F 25.6 °F 19.4 °F 60% 30.23 in 10.0 mi East 6.9 mph - N/A   Clear
9:55 AM 32.0 °F 25.6 °F 19.4 °F 60% 30.23 in 10.0 mi East 6.9 mph - N/A   Clear
10:15 AM 32.0 °F 26.4 °F 19.4 °F 60% 30.22 in 10.0 mi East 5.8 mph - N/A   Clear
10:35 AM 32.0 °F 27.5 °F 19.4 °F 60% 30.22 in 10.0 mi ESE 4.6 mph - N/A   Clear
10:55 AM 32.0 °F 26.4 °F 19.4 °F 60% 30.21 in 10.0 mi SE 5.8 mph - N/A   Clear
11:15 AM 32.0 °F - 19.4 °F 60% 30.22 in 10.0 mi Calm Calm - N/A   Clear
11:35 AM 32.0 °F 24.8 °F 19.4 °F 60% 30.22 in 10.0 mi SE 8.1 mph - N/A   Clear
11:55 AM 33.8 °F 27.0 °F 19.4 °F 56% 30.21 in 10.0 mi SE 8.1 mph - N/A   Clear
12:15 PM 33.8 °F 28.6 °F 19.4 °F 56% 30.21 in 10.0 mi SSE 5.8 mph - N/A   Clear
12:35 PM 33.8 °F 28.6 °F 17.6 °F 52% 30.20 in 10.0 mi SE 5.8 mph - N/A   Clear
12:55 PM 33.8 °F 30.8 °F 19.4 °F 56% 30.19 in 10.0 mi SE 3.5 mph - N/A   Clear
1:15 PM 33.8 °F 29.6 °F 19.4 °F 56% 30.19 in 10.0 mi South 4.6 mph - N/A   Clear
1:35 PM 33.8 °F 28.6 °F 19.4 °F 56% 30.18 in 10.0 mi South 5.8 mph - N/A   Clear
1:55 PM 35.6 °F 30.7 °F 17.6 °F 48% 30.17 in 10.0 mi SSE 5.8 mph - N/A   Clear
2:15 PM 33.8 °F 27.7 °F 17.6 °F 52% 30.16 in 10.0 mi SSE 6.9 mph - N/A   Clear
2:35 PM 33.8 °F 27.7 °F 19.4 °F 56% 30.16 in 10.0 mi South 6.9 mph - N/A   Mostly Cloudy
2:55 PM 33.8 °F 27.0 °F 19.4 °F 56% 30.16 in 10.0 mi South 8.1 mph - N/A   Scattered Clouds
3:15 PM 35.6 °F 30.7 °F 19.4 °F 52% 30.15 in 10.0 mi SSE 5.8 mph - N/A   Scattered Clouds
3:35 PM 33.8 °F 27.0 °F 19.4 °F 56% 30.14 in 10.0 mi SSE 8.1 mph - N/A   Mostly Cloudy
3:55 PM 35.6 °F 29.2 °F 21.2 °F 56% 30.13 in 10.0 mi SSE 8.1 mph - N/A   Overcast
4:15 PM 35.6 °F 29.2 °F 21.2 °F 56% 30.13 in 10.0 mi SSE 8.1 mph - N/A   Mostly Cloudy
4:35 PM 35.6 °F 29.9 °F 21.2 °F 56% 30.12 in 10.0 mi SE 6.9 mph - N/A   Overcast
4:55 PM 35.6 °F 28.6 °F 19.4 °F 52% 30.11 in 10.0 mi SSE 9.2 mph - N/A   Overcast
5:15 PM 33.8 °F 27.0 °F 17.6 °F 52% 30.10 in 10.0 mi SE 8.1 mph - N/A   Overcast
5:35 PM 35.6 °F 29.2 °F 19.4 °F 52% 30.09 in 10.0 mi SE 8.1 mph - N/A   Overcast
5:55 PM 35.6 °F 29.2 °F 19.4 °F 52% 30.08 in 10.0 mi ESE 8.1 mph - N/A   Overcast
6:15 PM 35.6 °F 30.7 °F 19.4 °F 52% 30.07 in 10.0 mi ESE 5.8 mph - N/A   Overcast
6:35 PM 35.6 °F 31.7 °F 19.4 °F 52% 30.07 in 10.0 mi SE 4.6 mph - N/A   Overcast
6:55 PM 33.8 °F 27.7 °F 21.2 °F 60% 30.06 in 10.0 mi ESE 6.9 mph - N/A   Overcast
7:15 PM 33.8 °F 29.6 °F 21.2 °F 60% 30.05 in 10.0 mi SE 4.6 mph - N/A   Overcast
7:35 PM 33.8 °F 28.6 °F 21.2 °F 60% 30.05 in 10.0 mi SE 5.8 mph - N/A   Overcast
7:55 PM 32.0 °F 20.5 °F 26.6 °F 80% 30.06 in 7.0 mi South 18.4 mph - N/A Rain Light Rain
8:15 PM 32.0 °F 23.6 °F 28.4 °F 87% 30.06 in 2.5 mi SSE 10.4 mph - N/A Snow Light Snow
8:35 PM 32.0 °F 25.6 °F 28.4 °F 87% 30.06 in 2.0 mi SE 6.9 mph - N/A Snow Light Snow
8:55 PM 32.0 °F 24.8 °F 30.2 °F 93% 30.06 in 2.5 mi SE 8.1 mph - N/A Snow Light Snow
9:15 PM 32.0 °F 24.2 °F 28.4 °F 87% 30.06 in 2.5 mi SE 9.2 mph - N/A Snow Light Snow
9:35 PM 30.2 °F 22.6 °F 30.2 °F 100% 30.05 in 1.5 mi SE 8.1 mph - N/A Snow Light Snow
9:55 PM 30.2 °F 22.6 °F 30.2 °F 100% 30.06 in 2.5 mi SE 8.1 mph - 0.01 in Snow Light Snow
10:15 PM 30.2 °F 23.4 °F 30.2 °F 100% 30.05 in 4.0 mi ESE 6.9 mph - N/A Snow Light Snow
10:35 PM 32.0 °F 24.2 °F 30.2 °F 93% 30.04 in 7.0 mi ESE 9.2 mph - N/A Snow Light Snow
10:55 PM 32.0 °F 23.6 °F 30.2 °F 93% 30.03 in 5.0 mi ESE 10.4 mph - N/A Snow Light Snow
11:15 PM 32.0 °F 23.6 °F 30.2 °F 93% 30.01 in 7.0 mi ESE 10.4 mph - N/A Snow Light Snow
11:35 PM 32.0 °F 24.2 °F 30.2 °F 93% 30.00 in 5.0 mi ESE 9.2 mph - N/A Snow Light Snow
11:55 PM 32.0 °F 23.0 °F 30.2 °F 93% 29.98 in 7.0 mi ESE 11.5 mph - N/A Snow Light Snow